Rawlins, WY

5:42 PM MDT on March 27, 2017 (GMT -0600)
Rawlins Municipal

Weather History for KRWL - March, 2013

Change the Weather History Date:

Saturday, March 2, 2013

  Actual Average Record
Temperature  
Mean Temperature 35 °F 28 °F  
Max Temperature 43 °F 39 °F 55 °F (1986)
Min Temperature 27 °F 17 °F -18 °F (2002)
Degree Days  
Heating Degree Days 30 37  
Month to date heating degree days 65 74  
Since 1 July heating degree days 5666 6031  
Cooling Degree Days 0 0  
Month to date cooling degree days 0 0  
Year to date cooling degree days 0 0  
Moisture  
Dew Point 24 °F    
Average Humidity 67    
Maximum Humidity 85    
Minimum Humidity 48    
Precipitation  
Precipitation 0.00 in 0.01 in 0.43 in (2015)
Month to date precipitation 0.00 0.03  
Year to date precipitation 0.36 0.81  
Sea Level Pressure  
Sea Level Pressure 30.32 in    
Wind  
Wind Speed 12 mph (WSW)    
Max Wind Speed 33 mph    
Max Gust Speed 39 mph    
Visibility 10 miles    
Events      
T = Trace of Precipitation, MM = Missing Value Source: NWS Daily Summary

Daily Weather History Graph

Daily Weather History Graph

Search for Another Location

Airport or City:

Trip Planner

Search our weather history database for the weather conditions in past years. The results will help you decide how hot, cold, wet, or windy it might be!

Date:

Astronomy

Mar. 02, 2013 Rise Set
Actual Time 6:41 AM MST 6:00 PM MST
Civil Twilight 6:13 AM MST 6:28 PM MST
Nautical Twilight 5:41 AM MST 7:00 PM MST
Astronomical Twilight 5:09 AM MST 7:33 PM MST
Moon 11:49 PM MST (3/2) 9:06 AM MST (3/2)
Length of Visible Light 12h 14m
Length of Day
11h 19m
Waning Gibbous, 73% of the Moon is Illuminated
Mar 2
Waning Gibbous
Mar 4
Last Quarter
Mar 11
New
Mar 19
First Quarter
Mar 27
Full

Hourly Weather History & Observations

Time (MST) Temp. Windchill Dew Point Humidity Pressure Visibility Wind Dir Wind Speed Gust Speed Precip Events Conditions
12:53 AM 28.0 °F 20.0 °F 23.0 °F 81% 30.43 in 10.0 mi WSW 8.1 mph - N/A   Clear
1:53 AM 28.0 °F 18.1 °F 23.0 °F 81% 30.41 in 10.0 mi WSW 11.5 mph - N/A   Clear
2:53 AM 27.0 °F 16.1 °F 21.9 °F 81% 30.42 in 10.0 mi WSW 12.7 mph - N/A   Clear
3:53 AM 27.0 °F 17.3 °F 21.9 °F 81% 30.41 in 10.0 mi WSW 10.4 mph - N/A   Clear
4:53 AM 28.0 °F 22.8 °F 21.9 °F 78% 30.40 in 10.0 mi West 4.6 mph - N/A   Scattered Clouds
5:03 AM 26.6 °F 20.0 °F 21.2 °F 80% 30.38 in 10.0 mi West 5.8 mph - N/A   Mostly Cloudy
5:12 AM 28.4 °F 21.2 °F 21.2 °F 74% 30.38 in 10.0 mi WSW 6.9 mph - N/A   Scattered Clouds
5:22 AM 28.4 °F 20.4 °F 21.2 °F 74% 30.38 in 10.0 mi West 8.1 mph - N/A   Mostly Cloudy
5:53 AM 30.0 °F 26.5 °F 23.0 °F 75% 30.41 in 10.0 mi Variable 3.5 mph - N/A   Mostly Cloudy
6:14 AM 30.2 °F 25.4 °F 23.0 °F 75% 30.38 in 10.0 mi Variable 4.6 mph - N/A   Scattered Clouds
6:24 AM 30.2 °F - 23.0 °F 75% 30.38 in 10.0 mi Calm Calm - N/A   Mostly Cloudy
6:53 AM 28.9 °F - 21.9 °F 75% 30.42 in 10.0 mi Calm Calm - N/A   Overcast
7:53 AM 30.0 °F 21.7 °F 23.0 °F 75% 30.43 in 10.0 mi SW 9.2 mph - N/A   Mostly Cloudy
8:00 AM 30.2 °F 21.3 °F 24.8 °F 80% 30.39 in 10.0 mi WSW 10.4 mph - N/A   Scattered Clouds
8:12 AM 30.2 °F 22.6 °F 24.8 °F 80% 30.39 in 10.0 mi WSW 8.1 mph - N/A   Mostly Cloudy
8:20 AM 30.2 °F 20.8 °F 24.8 °F 80% 30.39 in 10.0 mi WSW 11.5 mph 16.1 mph N/A   Scattered Clouds
8:35 AM 33.8 °F 24.8 °F 24.8 °F 70% 30.39 in 10.0 mi WSW 12.7 mph - N/A   Mostly Cloudy
8:44 AM 33.8 °F 26.4 °F 24.8 °F 70% 30.38 in 10.0 mi WSW 9.2 mph - N/A   Scattered Clouds
8:53 AM 33.1 °F 23.9 °F 24.1 °F 70% 30.41 in 10.0 mi SW 12.7 mph 19.6 mph N/A   Mostly Cloudy
9:10 AM 33.8 °F 23.9 °F 24.8 °F 70% 30.37 in 10.0 mi WSW 15.0 mph 20.7 mph N/A   Scattered Clouds
9:53 AM 36.0 °F 25.0 °F 25.0 °F 64% 30.39 in 10.0 mi SW 20.7 mph 25.3 mph N/A   Clear
10:53 AM 37.9 °F 28.2 °F 26.1 °F 62% 30.39 in 10.0 mi SW 18.4 mph 24.2 mph N/A   Clear
11:53 AM 39.9 °F 32.9 °F 27.0 °F 60% 30.36 in 10.0 mi SW 11.5 mph 20.7 mph N/A   Clear
12:53 PM 41.0 °F 32.5 °F 26.1 °F 55% 30.31 in 10.0 mi SW 17.3 mph 26.5 mph N/A   Clear
1:53 PM 42.1 °F 32.1 °F 26.1 °F 53% 30.25 in 10.0 mi WSW 25.3 mph 32.2 mph N/A   Clear
2:53 PM 43.0 °F 32.9 °F 26.1 °F 51% 30.24 in 10.0 mi WSW 27.6 mph 38.0 mph N/A   Clear
3:53 PM 42.1 °F 33.3 °F 26.1 °F 53% 30.23 in 10.0 mi WSW 19.6 mph 28.8 mph N/A   Clear
4:53 PM 41.0 °F 33.1 °F 25.0 °F 53% 30.21 in 10.0 mi WSW 15.0 mph - N/A   Clear
6:53 PM 37.0 °F 29.8 °F 23.0 °F 57% 30.21 in 10.0 mi WSW 10.4 mph - N/A   Clear
7:53 PM 37.0 °F 30.4 °F 21.9 °F 54% 30.18 in 10.0 mi SW 9.2 mph - N/A   Clear
8:53 PM 39.0 °F 31.8 °F 21.9 °F 50% 30.12 in 10.0 mi SW 11.5 mph - N/A   Clear
9:53 PM 39.0 °F 31.4 °F 23.0 °F 53% 30.07 in 10.0 mi WSW 12.7 mph - N/A   Clear
10:53 PM 37.9 °F 31.5 °F 23.0 °F 55% 30.05 in 10.0 mi SSW 9.2 mph - N/A   Clear
11:53 PM 37.9 °F 34.4 °F 24.1 °F 57% 30.00 in 10.0 mi SSW 4.6 mph - N/A   Clear